If you wish to contribute or participate in the discussions about articles you are invited to join SKYbrary as a registered user

 Actions

Landivisiau Air Base

From SKYbrary Wiki

LFRJ
Airport
ICAO: LFRJ
Summary
Name Landivisiau Air Base
Region Europe
Territory France FR.gif
Location , Bretagne
Serving Landivisiau
Elevation 106.07 m
348 ft
348 ft106.07 m
Type medium airport
Coordinates 48° 31' 48.93" N, 4° 9' 5.91" W
Runways
Designator Length Width Surface ROPS
8/26 2700 m8,858.268 ft
45 m147.638 ft
CON /


METAR
Observation LFRJ 221330Z AUTO 02006KT 330V090 9999 SCT026 BKN034 25/18 Q1023 NOSIG
Station Landivisiau
Date/Time 22 July 2019 13:30:00
Wind direction 20°
Wind speed 06 kts
Lowest cloud amount scattered clouds
Temperature 25°C
Dew point 18°C
Humidity 65%
QNH 1023 hPa
Weather condition n/a